AAL715 KDFW-KELP

Flight info

Callsign AAL715
Flight time N/A
Altitude 28000
Route WSTEX2 CIKAN BGS LIFFT SAMMR3
Aircraft A319/M-SDE3FGHIRWY/LB1

Departure

Time 2026-04-30 22:33
Airport Dallas Fort Worth International Airport (KDFW)

Arrival

Time N/A
Airport El Paso International Airport (KELP)
Time Latitude Longitude Altitude Speed Heading
2026-04-30 21:41 32.90614 -97.03539 587 ft 0 kts 248°
2026-04-30 22:20 32.90631 -97.03488 587 ft 4 kts 248°
2026-04-30 22:20 32.90642 -97.03459 587 ft 4 kts 248°
2026-04-30 22:21 32.90646 -97.03444 587 ft 0 kts 248°
2026-04-30 22:23 32.90646 -97.03447 587 ft 1 kts 255°
2026-04-30 22:24 32.90657 -97.03465 587 ft 4 kts 329°
2026-04-30 22:24 32.90690 -97.03470 587 ft 6 kts 352°
2026-04-30 22:24 32.90722 -97.03434 587 ft 8 kts 72°
2026-04-30 22:24 32.90721 -97.03359 586 ft 10 kts 105°
2026-04-30 22:25 32.90653 -97.03311 585 ft 14 kts 176°
2026-04-30 22:25 32.90550 -97.03312 585 ft 16 kts 179°
2026-04-30 22:25 32.90433 -97.03312 585 ft 18 kts 180°
2026-04-30 22:25 32.90302 -97.03313 585 ft 20 kts 180°
2026-04-30 22:26 32.90003 -97.03314 586 ft 23 kts 180°
2026-04-30 22:26 32.89836 -97.03315 586 ft 25 kts 180°
2026-04-30 22:26 32.89657 -97.03316 586 ft 26 kts 180°
2026-04-30 22:27 32.89468 -97.03317 586 ft 27 kts 180°
2026-04-30 22:27 32.89294 -97.03318 584 ft 26 kts 180°
2026-04-30 22:27 32.88994 -97.03320 583 ft 20 kts 180°
2026-04-30 22:28 32.88698 -97.03321 583 ft 17 kts 180°
2026-04-30 22:28 32.88604 -97.03380 583 ft 18 kts 255°
2026-04-30 22:29 32.88603 -97.03887 601 ft 19 kts 270°
2026-04-30 22:29 32.88604 -97.04055 601 ft 21 kts 270°
2026-04-30 22:30 32.88583 -97.04762 587 ft 20 kts 215°
2026-04-30 22:31 32.88219 -97.04807 587 ft 21 kts 180°
2026-04-30 22:32 32.87983 -97.04973 587 ft 15 kts 270°
2026-04-30 22:32 32.88183 -97.05089 591 ft 44 kts 360°
2026-04-30 22:33 32.90672 -97.05078 1012 ft 160 kts
2026-04-30 22:33 32.92939 -97.05158 2262 ft 171 kts
2026-04-30 22:34 32.97125 -97.06401 3719 ft 246 kts 343°
2026-04-30 22:35 33.00386 -97.08095 5375 ft 267 kts 317°
2026-04-30 22:36 33.01049 -97.16348 9428 ft 255 kts 262°
2026-04-30 22:36 33.00767 -97.18459 10234 ft 263 kts 261°
2026-04-30 22:37 32.99065 -97.25388 11562 ft 313 kts 237°
2026-04-30 22:37 32.97720 -97.27447 12366 ft 315 kts 235°
2026-04-30 22:37 32.95037 -97.31587 13974 ft 316 kts 236°
2026-04-30 22:38 32.92366 -97.35736 15368 ft 318 kts 236°
2026-04-30 22:38 32.89654 -97.39920 16741 ft 321 kts 237°
2026-04-30 22:39 32.88286 -97.42027 17423 ft 322 kts 238°
2026-04-30 22:39 32.84133 -97.48409 19291 ft 329 kts 238°
2026-04-30 22:40 32.79872 -97.54953 20818 ft 338 kts 238°
2026-04-30 22:41 32.75473 -97.61686 22186 ft 349 kts 237°
2026-04-30 22:41 32.72468 -97.66279 23072 ft 355 kts 237°
2026-04-30 22:42 32.67608 -97.76386 24626 ft 354 kts 261°
2026-04-30 22:43 32.67132 -97.82216 25455 ft 355 kts 265°
2026-04-30 22:43 32.66682 -97.88009 26281 ft 355 kts 265°
2026-04-30 22:44 32.66222 -97.93851 27083 ft 356 kts 265°
2026-04-30 22:45 32.65291 -98.05506 28004 ft 345 kts 265°
2026-04-30 22:45 32.64845 -98.11139 28114 ft 349 kts 265°
2026-04-30 22:46 32.64387 -98.16874 28973 ft 348 kts 265°
2026-04-30 22:47 32.63473 -98.28112 29997 ft 338 kts 266°
2026-04-30 22:48 32.62578 -98.39181 29991 ft 337 kts 265°
2026-04-30 22:49 32.61216 -98.55722 29986 ft 336 kts 265°
2026-04-30 22:51 32.59822 -98.72257 29984 ft 336 kts 265°
2026-04-30 22:52 32.59118 -98.80532 29989 ft 336 kts 265°
2026-04-30 22:53 32.58177 -98.91586 29992 ft 337 kts 265°
2026-04-30 22:53 32.57459 -98.99831 29990 ft 336 kts 265°
2026-04-30 22:55 32.56266 -99.13629 29991 ft 336 kts 265°
2026-04-30 22:56 32.55282 -99.24631 29980 ft 335 kts 265°
2026-04-30 22:57 32.54154 -99.38391 29989 ft 335 kts 266°
2026-04-30 22:58 32.53556 -99.49380 29990 ft 336 kts 266°
2026-04-30 22:59 32.52546 -99.65989 30009 ft 337 kts 266°